This is the latest recevied weather packets stored in our database for station/object KD2VWU. If no packets are shown the sender has not sent any weather packets the latest 10 day(s).
| Time | Temp. | Humidity | Pressure | Rain* | Wind** | Luminosity | Snow |
|---|---|---|---|---|---|---|---|
| 1777897755 | 11.67° C | 59% | 1010.5 hPa | 0 mm | - | - | - |
| 1777897451 | 11.11° C | 58% | 1010.5 hPa | 0 mm | - | - | - |
| 1777897148 | 10.56° C | 60% | 1010.5 hPa | 0 mm | - | - | - |
| 1777896844 | 10.56° C | 62% | 1010.5 hPa | 0 mm | - | - | - |
| 1777896541 | 10° C | 63% | 1010.6 hPa | 0 mm | - | - | - |
| 1777896238 | 10° C | 62% | 1010.5 hPa | 0 mm | - | - | - |
| 1777895936 | 9.44° C | 65% | 1010.7 hPa | 0 mm | - | - | - |
| 1777895634 | 9.44° C | 63% | 1010.6 hPa | 0 mm | - | - | - |
| 1777895331 | 8.89° C | 64% | 1010.7 hPa | 0 mm | - | - | - |
| 1777895029 | 8.89° C | 67% | 1010.5 hPa | 0 mm | - | - | - |
| 1777894726 | 8.89° C | 67% | 1010.6 hPa | 0 mm | - | - | - |
| 1777894422 | 8.33° C | 67% | 1010.5 hPa | 0 mm | - | - | - |
| 1777894120 | 8.33° C | 68% | 1010.5 hPa | 0 mm | - | - | - |
| 1777893817 | 8.33° C | 68% | 1010.3 hPa | 0 mm | - | - | - |
| 1777893513 | 7.78° C | 69% | 1010.4 hPa | 0 mm | - | - | - |
| 1777893209 | 7.78° C | 70% | 1010.4 hPa | 0 mm | - | - | - |
| 1777892906 | 7.78° C | 69% | 1010.4 hPa | 0 mm | - | - | - |
| 1777892597 | 7.78° C | 70% | 1010.4 hPa | 0 mm | - | - | - |
| 1777892293 | 7.22° C | 70% | 1010.2 hPa | 0 mm | - | - | - |
| 1777891989 | 6.67° C | 73% | 1010.5 hPa | 0 mm | - | - | - |
| 1777891687 | 6.67° C | 75% | 1010.6 hPa | 0 mm | - | - | - |
| 1777891383 | 6.67° C | 77% | 1010.4 hPa | 0 mm | - | - | - |
| 1777891078 | 6.11° C | 75% | 1010.2 hPa | 0 mm | - | - | - |
| 1777890773 | 6.11° C | 78% | 1010.3 hPa | 0 mm | - | - | - |
| 1777890470 | 6.11° C | 78% | 1010.2 hPa | 0 mm | - | - | - |
* Rain latest hour (hover to see other rain measurements)
** Current wind speed in m/s (hover to see current wind gust speed)